Home   Weather   Ho Chi Minh   Past weeks

Flag for Vietnam Past Weather in Ho Chi Minh, Vietnam — Yesterday and Last 2 Weeks

Now
79 °F

Partly sunny.


Feels Like: 83 °F
Forecast: 76 / 88 °F
Wind: 8 mph from Northeast

Location: Ho Chi Minh

Current Time: Dec 3, 2016 at 9:31:52 am

Latest Report: Dec 3, 2016 at 8:30 am


Visibility: 4 mi

Pressure: 29.89 "Hg

Humidity: 94%

Dew Point: 77 °F

Location of Ho Chi MinhLocation

Past Weather in Ho Chi Minh — Graph

°F

Ho Chi Minh Temperature Yesterday

Maximum temperature yesterday: 86 °F (at 12:30 pm)
Minimum temperature yesterday: 75 °F (at 1:00 am)
Average temperature yesterday: 79 °F

High & Low Weather Summary for the Past Weeks

 TemperatureHumidityPressure
High93 °F (Nov 19, 3:30 pm)100% (Nov 19, 6:30 am)29.92 "Hg (Nov 19, 6:30 am)
Low73 °F (Nov 30, 7:00 pm)44% (Nov 29, 2:00 pm)29.65 "Hg (Nov 19, 3:30 pm)
Average83 °F79%29.79 "Hg
* Reported Nov 18 8:00 am — Dec 3 8:30 am, Ho Chi Minh, Weather by CustomWeather, © 2016

Note: Actual official high and low records may vary slightly from our data, if they occured in-between our weather recording intervals... More about our weather records

Advertising

Ho Chi Minh Weather History for the Previous 24 Hours

Scroll right to see more
 ConditionsComfort  
Time TempWeatherWind HumidityBarometerVisibility
8:30 am
Sat, Dec 3
79 °FPartly sunny.8 mph94%29.89 "Hg4 mi
8:00 am79 °FScattered clouds.6 mph94%29.89 "Hg5 mi
7:30 am77 °FScattered clouds.6 mph100%29.89 "Hg5 mi
7:00 am77 °FPartly sunny.5 mph100%29.86 "HgN/A
6:30 am75 °FPartly sunny.5 mph100%29.86 "HgN/A
6:00 am75 °FScattered clouds.5 mph100%29.86 "Hg5 mi
5:30 am77 °FPassing clouds.3 mph94%29.83 "Hg5 mi
5:00 am77 °FPassing clouds.5 mph94%29.83 "Hg5 mi
4:30 am77 °FPassing clouds.1 mph100%29.83 "Hg5 mi
4:00 am77 °FPassing clouds.6 mph100%29.83 "Hg5 mi
3:30 am77 °FPassing clouds.2 mph100%29.86 "Hg5 mi
3:00 am77 °FPassing clouds.3 mph100%29.86 "Hg5 mi
2:30 am77 °FPassing clouds.1 mph100%29.86 "Hg5 mi
2:00 am77 °FPassing clouds.1 mph100%29.86 "Hg5 mi
1:30 am77 °FPassing clouds.2 mph100%29.86 "Hg5 mi
1:00 am77 °FPassing clouds.2 mph100%29.86 "Hg5 mi
12:30 am77 °FPassing clouds.1 mph100%29.86 "Hg5 mi
12:00 am77 °FPassing clouds.2 mph100%29.86 "Hg5 mi
11:30 pm
Fri, Dec 2
77 °FPassing clouds.1 mph100%29.86 "Hg5 mi
11:00 pm77 °FPassing clouds.1 mph100%29.86 "Hg5 mi
10:30 pm77 °FPassing clouds.3 mph100%29.89 "Hg4 mi
9:30 pm77 °FFog.3 mph100%29.89 "Hg2 mi
9:00 pm77 °FFog.5 mph100%29.86 "Hg3 mi
8:30 pm77 °FPassing clouds.5 mph100%29.86 "Hg4 mi
8:00 pm77 °FPartly cloudy.6 mph100%29.86 "HgN/A
7:30 pm77 °FPartly cloudy.3 mph100%29.86 "HgN/A
7:00 pm77 °FPartly cloudy.2 mph100%29.83 "HgN/A
6:30 pm77 °FPartly cloudy.2 mph100%29.83 "HgN/A
6:00 pm77 °FPartly cloudy.3 mph100%29.86 "HgN/A
5:30 pm77 °FThunderstorms. Partly cloudy.3 mph100%29.83 "Hg4 mi
5:00 pm79 °FStrong thunderstorms. Broken clouds.9 mph100%29.86 "Hg1 mi
4:30 pm82 °FLight rain. Broken clouds.3 mph84%29.80 "Hg5 mi
4:00 pm82 °FBroken clouds.5 mph84%29.80 "HgN/A
3:30 pm82 °FBroken clouds.5 mph84%29.80 "Hg5 mi
3:00 pm84 °FBroken clouds.3 mph74%29.80 "HgN/A
2:30 pm86 °FBroken clouds.5 mph66%29.80 "HgN/A
2:00 pm86 °FBroken clouds.3 mph66%29.83 "HgN/A
1:30 pm86 °FBroken clouds.6 mph66%29.83 "HgN/A
1:00 pm86 °FBroken clouds.2 mph66%29.86 "HgN/A
12:30 pm86 °FScattered clouds.2 mph66%29.86 "HgN/A
12:00 pm84 °FScattered clouds.2 mph70%29.86 "HgN/A
11:30 am84 °FScattered clouds.3 mph74%29.86 "HgN/A
11:00 am84 °FScattered clouds.3 mph70%29.89 "HgN/A
10:30 am82 °FScattered clouds.6 mph74%29.89 "HgN/A
10:00 am82 °FScattered clouds.6 mph74%29.89 "HgN/A
9:30 am82 °FScattered clouds.6 mph74%29.92 "HgN/A
9:00 am81 °FScattered clouds.5 mph79%29.92 "HgN/A
Weather by CustomWeather, © 2016

See weather overviewHow to use our weather pages